カタログに戻る

EUTE 12 WEST B

運用中通信GEO
NORAD 26927·PAYLOAD·🇪🇺 EU

打ち上げ Sep 25, 2001 から Guiana Space Centre

Loading…

TLE

最新Source: Space-Track

元期: Sep 14, 2026, 14:03 UTC

1 26927U 01042A   26257.58567439  .00000014  00000-0  00000+0 0  9996
2 26927   6.8434  69.7497 0005019 213.5967 334.3399  0.98526578 91030

AllMySatでEUTE 12 WEST Bをリアルタイム追跡

Download on the App Store